Simultaneous Nadir Overpasses (SNOs) Predictions

Prediction of SNOs over PacNW region [( 10.00, 139.50) to ( 22.70, 165.60)] between NOAA-19 and NPP Satellites:

Table of predicted SNOs over PacNW region for the next 30.0 days since TLE Epoch: 5/25/2012
Index Date (NOAA-19) Time (NOAA-19) NOAA-19 Lat,Lon Date (NPP) Time (NPP) NPP Lat,Lon Distance(km) Time Diff (sec)
1 05/27/2012 14:47:11 22.61, 165.01 05/27/2012 14:50:39 23.28, 161.99 318.26 208
2 05/28/2012 03:45:55 22.64, 142.91 05/28/2012 03:44:53 22.28, 141.08 192.18 62
3 06/08/2012 16:01:56 22.63, 146.34 06/08/2012 16:05:32 27.04, 143.95 547.28 216
4 06/09/2012 03:17:49 20.07, 150.42 06/09/2012 03:18:34 19.57, 148.12 246.70 45
5 06/09/2012 15:54:37 10.45, 146.10 06/09/2012 15:51:07 10.72, 144.74 151.99 210
6 06/21/2012 02:48:16 13.07, 159.01 06/21/2012 02:51:00 12.45, 156.17 315.36 164
7 06/21/2012<
